Facebook Twitter

Wetterstation Marienleuchte

Messwerte
  Temperatur Wetter Niederschlag Luftdruck Wind
Di, 20:00 Uhr 22° - - 1010.3 hPa 11 km/h SW

Böen 50 km/h
Di, 19:00 Uhr 23° - - 1010.1 hPa 11 km/h SW
Di, 18:00 Uhr 22° - - 1010.4 hPa 14 km/h SW
Di, 17:00 Uhr 23° - - 1010.5 hPa 25 km/h W

Böen 50 km/h
Di, 16:00 Uhr 24° - - 1010.1 hPa 18 km/h S
Di, 15:00 Uhr 24° - - 1010.2 hPa 18 km/h SW
Di, 14:00 Uhr 24° - - 1010.3 hPa 11 km/h SW
Di, 13:00 Uhr 24° - - 1010.4 hPa 11 km/h SW
Di, 12:00 Uhr 24° - - 1010.3 hPa 14 km/h SW
Di, 11:00 Uhr 23° - - 1010.1 hPa 14 km/h SW
Di, 10:00 Uhr 23° - - 1009.9 hPa 14 km/h SW
Di, 09:00 Uhr 22° - - 1009.7 hPa 11 km/h SW
Di, 08:00 Uhr 20° - - 1009.6 hPa 4 km/h N
Di, 07:00 Uhr 19° - - 1009.5 hPa 7 km/h SW
Di, 06:00 Uhr 19° - - 1009.5 hPa 11 km/h SW
Di, 05:00 Uhr 18° - - 1009.7 hPa 11 km/h S
Di, 04:00 Uhr 20° - - 1009.6 hPa 4 km/h N
Di, 03:00 Uhr 20° - - 1009.3 hPa 11 km/h NO
Di, 02:00 Uhr 20° - - 1009.9 hPa 11 km/h N
Di, 01:00 Uhr 20° - - 1010 hPa 11 km/h NW

Alle Zeitangaben MESZ